Change the Weather History Date:

Sunday, February 10, 2013

  Actual Average Record
Temperature  
Mean Temperature 22 °F -  
Max Temperature 25 °F 21 °F 41 °F (1999)
Min Temperature 19 °F 2 °F -25 °F (2003)
Degree Days  
Heating Degree Days 43    
Moisture  
Dew Point 21 °F    
Average Humidity 90    
Maximum Humidity 94    
Minimum Humidity 81    
Precipitation  
Precipitation 0.04 in 0.03 in - ()
Sea Level Pressure  
Sea Level Pressure 29.89 in    
Wind  
Wind Speed 8 mph ()    
Max Wind Speed 18 mph    
Max Gust Speed 32 mph    
Visibility 6.8 miles    
Events Snow    
Averages and records for this station are not official NWS values.
T = Trace of Precipitation, MM = Missing Value Source: Averaged Metar Reports

Daily Weather History Graph

Daily Weather History Graph

Search for Another Location

Airport or City:

Trip Planner

Search our weather history database for the weather conditions in past years. The results will help you decide how hot, cold, wet, or windy it might be!

Date:

Astronomy

Feb. 10, 2013 Rise Set
Actual Time 7:35 AM CST 5:28 PM CST
Civil Twilight 7:02 AM CST 6:02 PM CST
Nautical Twilight 6:24 AM CST 6:40 PM CST
Astronomical Twilight 5:46 AM CST 7:17 PM CST
Moon 7:18 AM CST (2/10) 6:30 PM CST (2/10)
Length of Visible Light 11h 00m
Length of Day
9h 52m
New Moon, 0% of the Moon is Illuminated
Feb 10
New Moon
Feb 17
First Quarter
Feb 25
Full
Mar 4
Last Quarter
Mar 11
New

Hourly Weather History & Observations

Time (CST) Temp. Windchill Dew Point Humidity Pressure Visibility Wind Dir Wind Speed Gust Speed Precip Events Conditions
12:00 AM 24 °F - 23 °F 92% 29.97 in 5 mi South 4.6 mph - -   Mist
12:00 AM 24.8 °F 19.1 °F 23.0 °F 93% 29.97 in 5.0 mi South 4.6 mph - N/A   Overcast
1:00 AM 24.8 °F 17.9 °F 23.0 °F 93% 29.98 in 5.0 mi South 5.8 mph - N/A   Overcast
2:00 AM 24.8 °F 20.5 °F 23.0 °F 93% 29.98 in 6.0 mi South 3.5 mph - N/A   Overcast
2:18 AM - - - N/A% - 5.0 mi Calm Calm - N/A   Overcast
3:00 AM 24.8 °F 20.5 °F 23.0 °F 93% 29.97 in 5.0 mi ESE 3.5 mph - N/A   Overcast
4:00 AM 24.8 °F 17.9 °F 23.0 °F 93% 29.96 in 5.0 mi East 5.8 mph - N/A   Overcast
5:00 AM 24.8 °F 17.9 °F 23.0 °F 93% 29.96 in 5.0 mi East 5.8 mph - N/A   Overcast
6:00 AM 24 °F - 23 °F 94% 29.96 in 6 mi ENE 3.5 mph - -   Mist
6:00 AM 24.8 °F 20.5 °F 23.0 °F 93% 29.96 in 6.0 mi ENE 3.5 mph - N/A   Overcast
7:00 AM 24.8 °F 16.1 °F 23.0 °F 93% 29.96 in 6.0 mi East 8.1 mph - N/A   Overcast
8:00 AM 24.8 °F 14.6 °F 21.2 °F 86% 29.96 in 6.0 mi East 10.4 mph - N/A   Overcast
9:00 AM 24.8 °F 13.4 °F 21.2 °F 86% 29.94 in 6.0 mi East 12.7 mph - N/A   Overcast
10:00 AM 24.8 °F 14.0 °F 21.2 °F 86% 29.94 in 8.0 mi East 11.5 mph - N/A   Overcast
10:49 AM - - - N/A% - 8.0 mi East 11.5 mph - N/A   Overcast
11:00 AM 24.8 °F 13.4 °F 21.2 °F 86% 29.92 in 8.0 mi East 12.7 mph - N/A   Overcast
12:00 PM 25 °F - 22 °F 81% 29.91 in 7 mi East 12.7 mph - -   Overcast
12:00 PM 24.8 °F 12.9 °F 21.2 °F 86% 29.91 in 8.0 mi East 13.8 mph - N/A   Overcast
1:00 PM 24.8 °F 14.6 °F 21.2 °F 86% 29.90 in 8.0 mi East 10.4 mph - N/A   Overcast
2:00 PM 24.8 °F 12.9 °F 21.2 °F 86% 29.87 in 8.0 mi NE 13.8 mph - N/A   Overcast
3:00 PM 24.8 °F 13.4 °F 21.2 °F 86% 29.84 in 10.0 mi NE 12.7 mph 19.6 mph N/A   Overcast
4:00 PM 23.0 °F 10.1 °F 21.2 °F 93% 29.82 in 8.0 mi NE 15.0 mph - N/A   Overcast
5:00 PM 23.0 °F 10.6 °F 19.4 °F 86% 29.82 in 8.0 mi NE 13.8 mph 26.5 mph N/A   Overcast
5:36 PM - - - N/A% - 8.0 mi NE 15.0 mph 32.2 mph N/A   Unknown
6:00 PM 22 °F - 20 °F 87% 29.79 in 10 mi NE 17.3 mph - - Snow Light Snow
6:00 PM 21.2 °F 8.3 °F 19.4 °F 93% 29.79 in 10.0 mi NE 13.8 mph 32.2 mph N/A Snow Light Snow
7:00 PM 21.2 °F 6.4 °F 19.4 °F 93% 29.79 in 12.0 mi NE 18.4 mph 27.6 mph N/A Snow Light Snow
8:00 PM 21.2 °F 7.3 °F 19.4 °F 93% 29.80 in 12.0 mi NE 16.1 mph 23.0 mph N/A Snow Light Snow
9:00 PM 21.2 °F 7.8 °F 17.6 °F 86% 29.80 in 12.0 mi NNE 15.0 mph 20.7 mph N/A Snow Light Snow
9:12 PM - - - N/A% - 2.0 mi NNE 11.5 mph 23.0 mph N/A   Unknown
10:00 PM 19.4 °F 6.0 °F 17.6 °F 93% 29.79 in 1.5 mi NNE 13.8 mph 21.9 mph N/A Snow Light Snow
11:00 PM 19.4 °F 6.0 °F 17.6 °F 93% 29.77 in 1.5 mi NNE 13.8 mph 20.7 mph N/A Snow Light Snow
11:48 PM - - - N/A% - 4.0 mi North 11.5 mph 18.4 mph N/A   Unknown